[Date Prev][Date Next][Thread Prev][Thread Next] - [Date Index][Thread Index][Author Index]
2 Line ISS Keps 10-2
- Subject: [sarex] 2 Line ISS Keps 10-2
- From: "Dave Larsen PhD" <doc@xxxxxxxxxxx>
- Date: Tue, 2 Oct 2001 11:16:01 -0700
ISS
1 25544U 98067A 01275.48952756 .00069235 00000-0 81107-3 0 5442
2 25544 51.6386 268.8264 0007809 153.9939 347.7720 15.60852530163825
----
Via the sarex mailing list at AMSAT.ORG courtesy of AMSAT-NA.
To unsubscribe, send "unsubscribe sarex" to Majordomo@amsat.org
AMSAT Home